"Pseudo-MPEC" for C06VMG2

Created 2019 Feb 15 22:18:05 UT using Find_Orb

Click here for an explanation of pseudo-MPECs

 
 Astrometry: 
     C06VMG2  C2019 02 11.30070 09 56 24.16 +10 03 27.4    ~2B8I 21.2 GVNEOCPG96
     C06VMG2  C2019 02 11.30631 09 56 24.49 +10 03 30.6    ~2B8I 21.3 GVNEOCPG96
     C06VMG2  C2019 02 11.31193 09 56 24.75 +10 03 34.6    ~2B8I 21.2 GVNEOCPG96
     C06VMG2  C2019 02 11.31756 09 56 25.05 +10 03 37.5    ~2B8I 21.7 GVNEOCPG96
     C06VMG2  C2019 02 11xwU^xG%f%^t[jk0_`dZDM]cShAstrometry2L5uM4M\riZsI!x-OV06
     C06VMG2  C2019 02 11.q5.iBwUo2+vXXr!lF$GDewX=rVSSe$YT3wdXFPcBQuT#v#!HHfyV06
     C06VMG2  C2019 02 11Vo8d\:;FLaQi)(]_o8cJ:ej9ytdjeh4equ=!hHEK*ccj2!-\;rMTV06
     C06VMG2  C2019 02 11A'qpbiK*kpUv4redacted;@FsM)4y0BJ1:fw/]Q*#F%07v@gd8-dV06
     C06VMG2 |C2019 02 12C8h7$?F;KPZN*`N0K?`k-J):4;O6bm_\PY!wtLM.T2o\Bt(ec,H#807
     C06VMG2 |C2019 02 12$M#:#6;1B(?P:h36bir'R$*/xHpc\?AcB[fYPADL#=#q`j-3%*?]807
     C06VMG2 |C2019 02 12L=?5:TUclickM+vKWyB4J($W+76i0sW9cm7a?/[.#5cPt:URmwfE807
     C06VMG2  C2019 02 12me`V2wr+,S9/BV9=pnodF5\LZ1kqQyrEX!PUM[t%#*s@!AiegXGmV06
     C06VMG2  C2019 02 12\cUn_#l@?LnyOyroTm8?[q@Nd,g(J$342,MiRn/$bTo4#I'pBbA7V06
     C06VMG2  C2019 02 12+a$qmR`EI#eW2y5['_XCt41ClR=)7X-bK_J_LMV7_BkNWL35o90*V06
     C06VMG2  C2019 02 12G(A/-Z1Wt7_here*OxLtL)F9?;,Oy0\P@-=g5^PCsaTGymQ(kWq`V06
     C06VMG2 KC2019 02 13qE!RAAWq*3MQ2@\nf9p]SrngidO:Et;E4gk8@uKG7h+T/Uk'_)q$L01
     C06VMG2 KC2019 02 134;i6`\05-X;EW*.@`y\g9f8qy$t,+B@f0`Huu/-jT-!9;Ayn#f-CL01
     C06VMG2 KC2019 02 13huIh;4(c/#rGfor'#H@rCsfF9NDr,fU_;w4??OSGlb$XKy[MsSplL01
     C06VMG2 pC2019 02 13T'hmwe[+0oRV11ti\tJdm#Z:v+DFXR(FE%fZAqDj#!4NjKHn5pqIL01
     C06VMG2 KC2019 02 14vw)wvbcV]4M7(L)LQ+@f!kie9D)^6]#2F@i]TC1kxmq'tH2:hh`XL01
     C06VMG2 KC2019 02 14=':t:::]Qn_X01_*YLx:^ZGk6^]GUd;OX/C;`7v#QT3bnqu@oQ4.L01
     C06VMG2 KC2019 02 14I)!3YMVO3H%6y3#;'tj!DB5R-K+/explanationEB2NCPaV#r+k@L01

Station data:
(807) Cerro Tololo Observatory, La Serena  (S30.169136 W70.805900)  Chile.
   1.5-m Ritchey-Chrétien.
(G96) Mt. Lemmon Survey  (N32.442754 W110.788720)  US/Arizona.  Observers B.
   M. Africano, E. J. Christensen, G. A. Farneth, D. C. Fuls, A. R. Gibbs, A.
   D. Grauer, H. Groeller, J. A. Johnson, R. A. Kowalski, S. M. Larson, G. J.
   Leonard, R. L. Seaman, F. C. Shelly. 1.5-m reflector + 10K CCD.
(L01) Višnjan Observatory, Tičan  (N45.290900 E13.749300)  Croatia.
   Observers K. Korlević, E. Pettarin. Measurer E. Pettarin. 1.0-m f/2.9
   reflector + CCD.
(V06) Catalina Sky Survey-Kuiper  (N32.416847 W110.732550)  US/Arizona.
   Observers B. M. Africano, E. J. Christensen, G. A. Farneth, D. C. Fuls, A.
   R. Gibbs, A. D. Grauer, H. Groeller, J. A. Johnson, R. A. Kowalski, S. M.
   Larson, G. J. Leonard, R. L. Seaman, F. C. Shelly. 1.55-m reflector + CCD.

Orbital elements:  C06VMG2
   Perihelion 2019 Feb 1.812044 +/- 0.347 TT = 19:29:20 (JD 2458516.312044)
Epoch 2019 Feb 14.0 TT = JDT 2458528.5   Earth MOID: 0.3136   Ma: 0.0692
M   2.81750114 +/- 0.06             (J2000 ecliptic)          AutoNEOCP
n   0.23117093 +/- 0.00463          Peri.  344.77678 +/- 0.27
a   2.62934290 +/- 0.0351           Node   150.86182 +/- 0.0037
e   0.5060071 +/- 0.00556           Incl.    4.38892 +/- 0.037
P   4.26                   H 23.0   G  0.15   U  9.1  
q 1.29887652 +/- 0.00281    Q 3.95980928 +/- 0.0687
From 22 observations 2019 Feb. 11-14; mean residual 0".33
Residuals in arcseconds: 
190211 G96  .24-  .43+    190212 807  .55-  .04-    190213 L01  .18-  .00     
190211 G96  .38+  .00     190212 807  .22-  .10-    190213 L01  .04-  .17+    
190211 G96  .05-  .37+    190212 807  .02+  .06+    190213 L01  .08+  1.1+    
190211 G96  .12+  .36-    190212 V06  .12+  .39-    190214 L01  .58+  .50-    
190211 V06  .41-  .44-    190212 V06  .39+  .22-    190214 L01  .53-  .17-    
190211 V06  .10+  .14-    190212 V06  .39+  .34-    190214 L01  .06+  .08+    
190211 V06  .31+  .45+    190212 V06  .25+  .17-    
190211 V06  .22-  .04+    190213 L01  .03-  .06-    

Ephemerides (geocentric):
Date (UTC) HH   RA              Dec         delta   r     elong  mag " sig PA
---- -- -- --  -------------   -----------  ------ ------ -----  --- ---- ---
2019 02 15 22  10 01 01.186   +10 53 41.04  .32008 1.3077 177.8 21.3 .452   6
2019 02 15 23  10 01 03.647   +10 54 08.25  .32011 1.3077 177.9 21.3 .464   7
2019 02 16 00  10 01 06.107   +10 54 35.46  .32015 1.3078 177.9 21.3 .476   8
2019 02 16 01  10 01 08.566   +10 55 02.68  .32019 1.3078 177.9 21.3 .488   8
2019 02 16 02  10 01 11.024   +10 55 29.88  .32023 1.3079 178.0 21.3 .501   9
2019 02 16 03  10 01 13.482   +10 55 57.09  .32027 1.3079 178.0 21.3 .514  10
2019 02 16 04  10 01 15.939   +10 56 24.29  .32031 1.3080 178.0 21.3 .526  11
2019 02 16 05  10 01 18.396   +10 56 51.49  .32035 1.3080 178.1 21.3 .540  11
2019 02 16 06  10 01 20.852   +10 57 18.69  .32039 1.3081 178.1 21.3 .553  12
2019 02 16 07  10 01 23.307   +10 57 45.88  .32043 1.3081 178.1 21.3 .566  12
2019 02 16 08  10 01 25.762   +10 58 13.07  .32047 1.3082 178.2 21.3 .580  13
2019 02 16 09  10 01 28.216   +10 58 40.25  .32051 1.3082 178.2 21.3 .594  14
2019 02 16 10  10 01 30.669   +10 59 07.44  .32055 1.3083 178.2 21.3 .608  14
2019 02 16 11  10 01 33.122   +10 59 34.61  .32059 1.3083 178.3 21.3 .622  15
2019 02 16 12  10 01 35.574   +11 00 01.79  .32063 1.3084 178.3 21.3 .637  15
2019 02 16 13  10 01 38.026   +11 00 28.96  .32067 1.3084 178.3 21.3 .652  16
2019 02 16 14  10 01 40.477   +11 00 56.13  .32071 1.3085 178.4 21.3 .667  16
2019 02 16 15  10 01 42.927   +11 01 23.29  .32075 1.3086 178.4 21.3 .682  17
2019 02 16 16  10 01 45.377   +11 01 50.45  .32080 1.3086 178.4 21.3 .697  17
2019 02 16 17  10 01 47.826   +11 02 17.60  .32084 1.3087 178.5 21.3 .712  17
2019 02 16 18  10 01 50.274   +11 02 44.75  .32088 1.3087 178.5 21.3 .728  18
2019 02 16 19  10 01 52.722   +11 03 11.90  .32092 1.3088 178.5 21.3 .744  18
2019 02 16 20  10 01 55.170   +11 03 39.04  .32097 1.3088 178.6 21.3 .760  19
2019 02 16 21  10 01 57.616   +11 04 06.17  .32101 1.3089 178.6 21.3 .776  19
2019 02 16 22  10 02 00.062   +11 04 33.30  .32105 1.3089 178.6 21.3 .793  20
2019 02 16 23  10 02 02.508   +11 05 00.43  .32110 1.3090 178.7 21.3 .809  20
2019 02 17 00  10 02 04.953   +11 05 27.55  .32114 1.3090 178.7 21.3 .826  20
2019 02 17 01  10 02 07.397   +11 05 54.67  .32118 1.3091 178.7 21.3 .843  21
2019 02 17 02  10 02 09.841   +11 06 21.78  .32123 1.3092 178.8 21.3 .860  21
2019 02 17 03  10 02 12.284   +11 06 48.88  .32127 1.3092 178.8 21.3 .877  21
2019 02 17 04  10 02 14.726   +11 07 15.98  .32132 1.3093 178.8 21.3 .895  22
2019 02 17 05  10 02 17.168   +11 07 43.07  .32136 1.3093 178.9 21.3 .912  22
2019 02 17 06  10 02 19.610   +11 08 10.16  .32141 1.3094 178.9 21.2 .930  22
2019 02 17 07  10 02 22.050   +11 08 37.24  .32145 1.3094 178.9 21.2 .948  23
2019 02 17 08  10 02 24.491   +11 09 04.32  .32150 1.3095 179.0 21.2 .966  23
2019 02 17 09  10 02 26.930   +11 09 31.39  .32155 1.3096 179.0 21.2 .985  23
2019 02 17 10  10 02 29.369   +11 09 58.45  .32159 1.3096 179.0 21.2 1.00  24
2019 02 17 11  10 02 31.808   +11 10 25.51  .32164 1.3097 179.1 21.2 1.02  24
2019 02 17 12  10 02 34.246   +11 10 52.56  .32169 1.3097 179.1 21.2 1.04  24
2019 02 17 13  10 02 36.683   +11 11 19.61  .32173 1.3098 179.1 21.2 1.06  25
2019 02 17 14  10 02 39.120   +11 11 46.64  .32178 1.3098 179.1 21.2 1.08  25
2019 02 17 15  10 02 41.556   +11 12 13.67  .32183 1.3099 179.2 21.2 1.10  25
2019 02 17 16  10 02 43.992   +11 12 40.70  .32188 1.3100 179.2 21.2 1.12  25
2019 02 17 17  10 02 46.427   +11 13 07.72  .32192 1.3100 179.2 21.2 1.14  26
2019 02 17 18  10 02 48.862   +11 13 34.73  .32197 1.3101 179.2 21.2 1.16  26
2019 02 17 19  10 02 51.296   +11 14 01.73  .32202 1.3101 179.3 21.2 1.18  26
2019 02 17 20  10 02 53.729   +11 14 28.72  .32207 1.3102 179.3 21.2 1.20  26
2019 02 17 21  10 02 56.162   +11 14 55.71  .32212 1.3102 179.3 21.2 1.22  27